Home > Weather > Penza > Past weeks

Flag for Russia Past Weather in Penza, Russia — Yesterday and Last 2 Weeks

Now
61 °F

Sunny.


Feels Like: 61 °F
Forecast: 58 / 81 °F
Wind: 3 mph from Northwest

Location: Saratov / Tsentralny

Current Time: Jul 2, 2016 at 5:06:31 AM

Latest Report: Jul 2, 2016 at 4:30 AM


Visibility: 10 mi

Pressure: 29.98 "Hg

Humidity: 83%

Dew Point: 55 °F

Location of PenzaLocation

Past Weather in Penza — Graph

°F

Penza Temperature Yesterday

Maximum temperature yesterday: 79 °F (at 1:00 PM)
Minimum temperature yesterday: 61 °F (at 3:00 AM)
Average temperature yesterday: 71 °F

High & Low Weather Summary for the Past Weeks

 TemperatureHumidityPressure
High90 °F (Jun 18, 2:00 PM)94% (Jun 28, 5:00 AM)30.24 "Hg (Jun 28, 5:00 AM)
Low55 °F (Jun 29, 3:00 AM)29% (Jun 17, 3:00 PM)29.71 "Hg (Jun 27, 5:00 PM)
Average76 °F59%30.02 "Hg
* Reported Jun 17 4:00 AM — Jul 2 4:00 AM, Penza, Weather by CustomWeather, © 2016

Note: Actual official high and low records may vary slightly from our data, if they occured in-between our weather recording intervals... More about our weather records

Advertising

Penza Weather History for the Previous 24 Hours

Scroll right to see more
 ConditionsComfort  
Time TempWeatherWind HumidityBarometerVisibility
4:00 AM
Sat, Jul 2
61 °FSunny.3 mph83%29.98 "Hg10 mi
3:00 AM64 °FClear.1 mph73%29.98 "Hg10 mi
2:00 AM64 °FClear.6 mph73%29.98 "Hg10 mi
1:00 AM64 °FClear.6 mph73%29.98 "Hg10 mi
12:30 AM64 °FClear.6 mph73%29.98 "Hg10 mi
12:00 AM64 °FClear.6 mph73%29.98 "Hg10 mi
11:30 PM
Fri, Jul 1
66 °FClear.3 mph73%29.98 "Hg10 mi
11:00 PM66 °FClear.1 mph73%29.98 "Hg10 mi
10:30 PM68 °FClear.1 mph73%29.98 "Hg10 mi
10:00 PM68 °FClear.1 mph73%29.98 "Hg10 mi
9:30 PM70 °FClear.No wind64%29.98 "Hg10 mi
9:00 PM70 °FClear.3 mph64%29.98 "Hg10 mi
8:30 PM73 °FClear.3 mph57%29.98 "Hg10 mi
8:00 PM73 °FSunny.3 mph57%29.98 "Hg10 mi
7:30 PM73 °FSunny.3 mph57%29.98 "Hg10 mi
7:00 PM73 °FSunny.6 mph57%29.98 "Hg10 mi
6:30 PM75 °FSunny.8 mph50%29.95 "Hg10 mi
6:00 PM75 °FSunny.8 mph50%29.95 "Hg10 mi
5:30 PM77 °FSunny.8 mph44%29.95 "Hg10 mi
5:00 PM77 °FSunny.8 mph44%29.95 "Hg10 mi
4:30 PM77 °FSunny.10 mph42%29.95 "Hg10 mi
4:00 PM77 °FSunny.8 mph42%29.95 "Hg10 mi
3:30 PM79 °FSunny.1 mph39%29.95 "Hg10 mi
3:00 PM79 °FSunny.8 mph39%29.95 "Hg10 mi
2:30 PM79 °FSunny.8 mph39%29.95 "Hg10 mi
2:00 PM79 °FSunny.6 mph39%29.95 "Hg10 mi
1:30 PM79 °FSunny.8 mph39%29.95 "Hg10 mi
1:00 PM79 °FSunny.8 mph39%29.95 "Hg10 mi
12:30 PM77 °FSunny.6 mph79%29.98 "Hg10 mi
12:00 PM77 °FSunny.8 mph44%29.98 "Hg10 mi
11:30 AM75 °FSunny.6 mph44%29.98 "Hg10 mi
11:00 AM75 °FSunny.6 mph44%29.98 "Hg10 mi
10:30 AM75 °FSunny.6 mph44%29.98 "Hg10 mi
10:00 AM75 °FSunny.6 mph44%29.98 "Hg10 mi
9:30 AM73 °FSunny.6 mph47%29.98 "Hg10 mi
9:00 AM73 °FSunny.8 mph47%29.98 "Hg10 mi
8:30 AM70 °FSunny.6 mph57%29.98 "Hg10 mi
8:00 AM70 °FSunny.6 mph57%29.98 "Hg10 mi
7:30 AM68 °FSunny.3 mph64%29.98 "Hg10 mi
7:00 AM68 °FSunny.3 mph64%29.98 "Hg10 mi
6:30 AM64 °FSunny.3 mph68%29.98 "Hg10 mi
6:00 AM64 °FSunny.3 mph68%29.98 "Hg10 mi
5:30 AM63 °FSunny.1 mph68%29.95 "Hg10 mi
5:00 AM63 °FSunny.1 mph68%29.95 "Hg10 mi
Weather by CustomWeather, © 2016

See weather overviewHow to use our weather pages